Weather History for Adana Incirlik AFB, Turkey

Change the Weather History Date:

Monday, September 23, 2013

  Actual Average Record
Temperature  
Mean Temperature 75 °F -  
Max Temperature 86 °F 86 °F 98 °F (2000)
Min Temperature 62 °F 62 °F 62 °F (1997)
Cooling Degree Days 10    
Growing Degree Days 25 (Base 50)    
Moisture  
Dew Point 52 °F    
Average Humidity 50    
Maximum Humidity 100    
Minimum Humidity 16    
Precipitation  
Precipitation 0.00 in - - ()
Sea Level Pressure  
Sea Level Pressure 29.73 in    
Wind  
Wind Speed 7 mph ()    
Max Wind Speed 17 mph    
Max Gust Speed -    
Visibility 6.2 miles    
Events      
Averages and records for this station are not official NWS values.
T = Trace of Precipitation, MM = Missing Value Source: Averaged Metar Reports

Daily Weather History Graph

Daily Weather History Graph

Search for Another Location

Airport:

Trip Planner

Search our weather history database for the weather conditions in past years. The results will help you decide how hot, cold, wet, or windy it might be!

Date:

Astronomy

Sep. 23, 2013 Rise Set
Actual Time 6:26 AM EEST 6:33 PM EEST
Civil Twilight 6:00 AM EEST 6:59 PM EEST
Nautical Twilight 5:30 AM EEST 7:29 PM EEST
Astronomical Twilight 4:59 AM EEST 8:00 PM EEST
Moon 8:57 PM EEST (9/23) 10:19 AM EEST (9/23)
Length of Visible Light 12h 58m
Length of Day
12h 06m
Waning Gibbous, 84% of the Moon is Illuminated
Sep 23
Waning Gibbous
Sep 27
Last Quarter
Oct 5
New
Oct 12
First Quarter
Oct 19
Full

Hourly Weather History & Observations

Time (EEST) Temp. Dew Point Humidity Pressure Visibility Wind Dir Wind Speed Gust Speed Precip Events Conditions
12:20 AM 66.2 °F 66.2 °F 100% 29.74 in 6.2 mi ENE 5.8 mph - N/A   Scattered Clouds
12:50 AM 66.2 °F 64.4 °F 94% 29.74 in 6.2 mi ENE 4.6 mph - N/A   Scattered Clouds
1:20 AM 66.2 °F 66.2 °F 100% 29.74 in 6.2 mi NE 4.6 mph - N/A   Scattered Clouds
1:50 AM 68.0 °F 66.2 °F 94% 29.74 in 6.2 mi NE 8.1 mph - N/A   Scattered Clouds
2:20 AM 66.2 °F 64.4 °F 94% 29.74 in 6.2 mi ENE 8.1 mph - N/A   Scattered Clouds
2:50 AM 66.2 °F 64.4 °F 94% 29.74 in 6.2 mi NE 6.9 mph - N/A   Scattered Clouds
3:00 AM 67 °F 64 °F 86% 29.73 in 6 mi NE 6.9 mph - -   Partly Cloudy
3:20 AM 68.0 °F 62.6 °F 83% 29.74 in 6.2 mi NNE 6.9 mph - N/A   Scattered Clouds
3:50 AM 68.0 °F 62.6 °F 83% 29.74 in 6.2 mi ENE 5.8 mph - N/A   Scattered Clouds
4:20 AM 68.0 °F 62.6 °F 83% 29.74 in 6.2 mi ENE 5.8 mph - N/A   Scattered Clouds
4:50 AM 68.0 °F 62.6 °F 83% 29.74 in 6.2 mi NE 6.9 mph - N/A   Scattered Clouds
5:20 AM 68.0 °F 60.8 °F 78% 29.74 in 6.2 mi NE 6.9 mph - N/A   Scattered Clouds
5:50 AM 66.2 °F 59.0 °F 78% 29.74 in 6.2 mi NNE 5.8 mph - N/A   Scattered Clouds
6:20 AM 68.0 °F 51.8 °F 56% 29.74 in 6.2 mi NNE 10.4 mph - N/A   Mostly Cloudy
6:50 AM 69.8 °F 50.0 °F 49% 29.74 in 6.2 mi NE 11.5 mph - N/A   Mostly Cloudy
7:20 AM 71.6 °F 48.2 °F 43% 29.74 in 6.2 mi NE 12.7 mph - N/A   Mostly Cloudy
7:50 AM 73.4 °F 46.4 °F 38% 29.74 in 6.2 mi NNE 12.7 mph - N/A   Mostly Cloudy
8:20 AM 75.2 °F 46.4 °F 36% 29.74 in 6.2 mi NE 17.3 mph - N/A   Scattered Clouds
8:50 AM 77.0 °F 46.4 °F 34% 29.74 in 6.2 mi NE 11.5 mph - N/A   Scattered Clouds
9:00 AM 77 °F 45 °F 22% 29.74 in 6 mi NE 11.5 mph - -   Scattered Clouds
9:20 AM 78.8 °F 44.6 °F 30% 29.74 in 6.2 mi NNE 16.1 mph - N/A   Partly Cloudy
9:50 AM 78.8 °F 44.6 °F 30% 29.77 in 6.2 mi NNE 13.8 mph - N/A   Partly Cloudy
10:20 AM 82.4 °F 42.8 °F 25% 29.77 in 6.2 mi NE 13.8 mph - N/A   Partly Cloudy
10:50 AM 82.4 °F 42.8 °F 25% 29.77 in 6.2 mi NE 9.2 mph - N/A   Partly Cloudy
11:20 AM 82.4 °F 41.0 °F 23% 29.74 in 6.2 mi ENE 5.8 mph - N/A   Partly Cloudy
11:50 AM 84.2 °F 42.8 °F 23% 29.74 in 6.2 mi NNE 6.9 mph - N/A   Partly Cloudy
12:20 PM 82.4 °F 41.0 °F 23% 29.74 in 6.2 mi NNW 4.6 mph - N/A   Partly Cloudy
12:50 PM 84.2 °F 42.8 °F 23% 29.74 in 6.2 mi NW 4.6 mph - N/A   Partly Cloudy
1:20 PM 84.2 °F 42.8 °F 23% 29.74 in 6.2 mi North 2.3 mph - N/A   Partly Cloudy
1:50 PM 84.2 °F 42.8 °F 23% 29.71 in 6.2 mi WSW 2.3 mph - N/A   Partly Cloudy
2:20 PM 86.0 °F 44.6 °F 23% 29.71 in 6.2 mi SW 10.4 mph - N/A   Partly Cloudy
2:50 PM 86.0 °F 46.4 °F 25% 29.71 in 6.2 mi WSW 10.4 mph - N/A   Partly Cloudy
3:00 PM 85 °F 46 °F 16% 29.71 in 6 mi WSW 10.4 mph - -   Scattered Clouds
3:20 PM 86.0 °F 46.4 °F 25% 29.71 in 6.2 mi WSW 11.5 mph - N/A   Partly Cloudy
3:50 PM 86.0 °F 42.8 °F 22% 29.71 in 6.2 mi WSW 11.5 mph - N/A   Partly Cloudy
4:20 PM 86.0 °F 44.6 °F 23% 29.71 in 6.2 mi SW 11.5 mph - N/A   Partly Cloudy
4:50 PM 84.2 °F 50.0 °F 30% 29.71 in 6.2 mi WSW 10.4 mph - N/A   Partly Cloudy
5:20 PM 82.4 °F 50.0 °F 32% 29.71 in 6.2 mi SW 11.5 mph - N/A   Partly Cloudy
5:50 PM 80.6 °F 48.2 °F 32% 29.71 in 6.2 mi SW 8.1 mph - N/A   Partly Cloudy
6:20 PM 78.8 °F 51.8 °F 39% 29.71 in 6.2 mi SW 11.5 mph - N/A   Partly Cloudy
6:50 PM 77.0 °F 53.6 °F 44% 29.71 in 6.2 mi WSW 8.1 mph - N/A   Partly Cloudy
7:20 PM 75.2 °F 53.6 °F 47% 29.71 in 6.2 mi SW 6.9 mph - N/A   Partly Cloudy
7:50 PM 73.4 °F 53.6 °F 50% 29.74 in 6.2 mi SW 6.9 mph - N/A   Partly Cloudy
8:20 PM 73.4 °F 53.6 °F 50% 29.74 in 6.2 mi WSW 4.6 mph - N/A   Partly Cloudy
8:50 PM 73.4 °F 51.8 °F 47% 29.74 in 6.2 mi West 3.5 mph - N/A   Partly Cloudy
9:00 PM 74 °F 52 °F 35% 29.74 in 6 mi West 3.5 mph - -   Scattered Clouds
9:20 PM 73.4 °F 53.6 °F 50% 29.74 in 6.2 mi West 3.5 mph - N/A   Partly Cloudy
9:50 PM 71.6 °F 53.6 °F 53% 29.74 in 6.2 mi Variable 2.3 mph - N/A   Partly Cloudy
10:20 PM 71.6 °F 53.6 °F 53% 29.74 in 6.2 mi Variable 2.3 mph - N/A   Scattered Clouds
10:50 PM 68.0 °F 53.6 °F 60% 29.74 in 6.2 mi East 4.6 mph - N/A   Scattered Clouds
11:20 PM 64.4 °F 55.4 °F 73% 29.74 in 6.2 mi NE 6.9 mph - N/A   Scattered Clouds
11:50 PM 62.6 °F 59.0 °F 88% 29.74 in 6.2 mi NE 6.9 mph - N/A   Scattered Clouds